Location: Dead Woman Crossing
(43.5369°N, 106.3228°W)
Time: 01:55:34
(UTC+00:00)

UWE-3 - Pass Details

Date: 02 July 2022
Orbit: 583 x 677 km, 97.7° (Epoch: 16 August)

Event Time Altitude Azimuth Distance (km) Brightness Sun altitude
Rises 09:04:12 0° 37° (NE) 2,908 ? -18.4°
Reaches altitude 10° 09:08:58 10° 85° (E) 2,024 ? -18.0°
Maximum altitude 09:09:15 10° 88° (E) 2,022 ? -18.0°
Drops below altitude 10° 09:09:32 10° 92° (E) 2,027 ? -17.9°
Sets 09:14:21 0° 139° (SE) 2,959 ? -17.5°
